Overview Statistics Trail Chart Weather Telemetry Raw packets
 

This is the latest recevied weather packets stored in our database for station/object W7BTL. If no packets are shown the sender has not sent any weather packets the latest 10 day(s).

<< 76 77 78 79 80 81 82 >>
Time Temp. Humidity Pressure Rain* Wind** Luminosity Snow
1788105026 27.22° C 66% 1011.9 hPa 0 mm - 304 W/m² -
1788104721 27.22° C 67% 1012 hPa 0 mm - 322 W/m² -
1788104418 26.67° C 67% 1011.8 hPa 0 mm - 295 W/m² -
1788104114 26.67° C 68% 1012 hPa 0 mm - 282 W/m² -
1788103814 26.11° C 71% 1012.1 hPa 0 mm - 261 W/m² -
1788103508 26.11° C 71% 1012.1 hPa 0 mm - 238 W/m² -
1788103207 26.11° C 72% 1012.1 hPa 0 mm - 69 W/m² -
1788102901 25.56° C 72% 1012 hPa 0 mm - 67 W/m² -
1788102596 26.11° C 72% 1012.1 hPa 0 mm - 68 W/m² -
1788102299 25.56° C 72% 1011.9 hPa 0 mm - 64 W/m² -
1788101996 25° C 73% 1012.1 hPa 0 mm - 62 W/m² -
1788101690 25° C 73% 1012 hPa 0 mm - 60 W/m² -
1788101391 25° C 74% 1012 hPa 0 mm - 129 W/m² -
1788101087 25° C 74% 1011.9 hPa 0 mm - 119 W/m² -
1788100782 24.44° C 75% 1011.8 hPa 0 mm - 104 W/m² -
1788100478 23.89° C 77% 1011.9 hPa 0 mm - 93 W/m² -
1788100176 23.89° C 77% 1011.8 hPa 0 mm - 83 W/m² -
1788099872 23.33° C 79% 1011.8 hPa 0 mm - 73 W/m² -
1788099566 23.33° C 80% 1011.8 hPa 0 mm - 66 W/m² -
1788099262 22.22° C 83% 1011.7 hPa 0 mm - 57 W/m² -
1788098957 21.67° C 86% 1011.8 hPa 0 mm - 50 W/m² -
1788098652 21.11° C 89% 1011.9 hPa 0 mm - 39 W/m² -
1788098351 21.11° C 89% 1011.6 hPa 0 mm - 33 W/m² -
1788098047 21.11° C 88% 1011.6 hPa 0 mm - 19 W/m² -
1788097742 21.11° C 88% 1011.7 hPa 0 mm - 14 W/m² -

* Rain latest hour (hover to see other rain measurements)
** Current wind speed in m/s (hover to see current wind gust speed)